Home   Weather   Dudley   Past weeks

Flag for United Kingdom Past Weather in Dudley, England, United Kingdom — Yesterday and Last 2 Weeks

Now
36 °F

Partly cloudy.


Feels Like: 30 °F
Forecast: 33 / 46 °F
Wind: 7 mph from North

Location: Birmingham / Airport

Current Time: Apr 25, 2017 at 11:38:47 pm

Latest Report: Apr 25, 2017 at 11:20 pm


Visibility: N/A

Pressure: 30.04 "Hg

Humidity: 100%

Dew Point: 36 °F

Location of DudleyLocation

Past Weather in Dudley — Graph

°F

Dudley Temperature Yesterday

Maximum temperature yesterday: 54 °F (at 11:50 am)
Minimum temperature yesterday: 39 °F (at 12:50 am)
Average temperature yesterday: 47 °F

High & Low Weather Summary for the Past Weeks

 TemperatureHumidityPressure
High59 °F (Apr 11, 5:20 pm)100% (Apr 12, 7:20 pm)30.63 "Hg (Apr 12, 7:20 pm)
Low32 °F (Apr 23, 3:50 am)35% (Apr 18, 5:50 pm)29.89 "Hg (Apr 25, 3:50 am)
Average48 °F71%30.24 "Hg
* Reported Apr 10 10:20 pm — Apr 25 10:20 pm, Dudley, Weather by CustomWeather, © 2017

Note: Actual official high and low records may vary slightly from our data, if they occured in-between our weather recording intervals... More about our weather records

Advertising

Dudley Weather History for the Previous 24 Hours

Scroll right to see more
 ConditionsComfort  
Time TempWeatherWind HumidityBarometerVisibility
10:20 pm
Tue, Apr 25
39 °FPassing clouds.10 mph87%30.01 "HgN/A
9:50 pm39 °FPassing clouds.13 mph87%30.01 "HgN/A
9:20 pm37 °FPassing clouds.9 mph93%30.01 "HgN/A
8:50 pm37 °FClear.6 mph93%30.01 "Hg10 mi
8:20 pm37 °FPassing clouds.6 mph93%29.98 "HgN/A
7:50 pm39 °FScattered clouds.12 mph87%29.98 "HgN/A
7:20 pm39 °FScattered clouds.8 mph93%29.98 "HgN/A
6:50 pm41 °FPassing clouds.9 mph87%29.98 "HgN/A
6:20 pm39 °FScattered showers. Scattered clouds.7 mph93%29.98 "HgN/A
5:50 pm39 °FSprinkles. Broken clouds.22 mph87%29.98 "HgN/A
5:20 pm41 °FScattered showers. Broken clouds.8 mph81%29.95 "HgN/A
4:50 pm45 °FScattered showers. Partly sunny.13 mph61%29.95 "HgN/A
4:20 pm46 °FScattered showers. Broken clouds.13 mph53%29.95 "HgN/A
3:50 pm46 °FScattered showers. Scattered clouds.13 mph57%29.95 "HgN/A
3:20 pm46 °FScattered clouds.12 mph57%29.95 "HgN/A
2:50 pm41 °FScattered showers. Scattered clouds.18 mph76%29.98 "HgN/A
2:20 pm45 °FScattered showers. Scattered clouds.18 mph57%29.95 "HgN/A
1:50 pm45 °FScattered showers. Broken clouds.8 mph61%29.95 "HgN/A
1:20 pm43 °FHail. Partly sunny.15 mph57%29.95 "HgN/A
12:50 pm48 °FScattered showers. Scattered clouds.17 mph43%29.95 "HgN/A
12:20 pm45 °FScattered clouds.15 mph49%29.98 "HgN/A
11:50 am45 °FPartly sunny.16 mph53%29.98 "HgN/A
11:20 am45 °FScattered clouds.15 mph49%29.98 "HgN/A
10:50 am45 °FPassing clouds.17 mph49%29.98 "HgN/A
10:20 am43 °FScattered clouds.17 mph49%29.95 "HgN/A
9:50 am43 °FScattered clouds.13 mph49%29.95 "HgN/A
9:20 am43 °FPassing clouds.13 mph57%29.95 "HgN/A
8:50 am41 °FPassing clouds.13 mph61%29.95 "HgN/A
8:20 am39 °FPassing clouds.13 mph65%29.95 "HgN/A
7:50 am39 °FPassing clouds.9 mph70%29.95 "HgN/A
7:20 am37 °FPassing clouds.6 mph93%29.95 "HgN/A
6:50 am37 °FScattered clouds.6 mph100%29.92 "HgN/A
6:20 am36 °FPartly sunny.10 mph100%29.92 "HgN/A
5:50 am36 °FPartly sunny.12 mph100%29.92 "HgN/A
5:20 am36 °FPassing clouds.10 mph100%29.92 "HgN/A
4:50 am36 °FPassing clouds.10 mph93%29.89 "HgN/A
4:20 am36 °FMostly cloudy.6 mph93%29.89 "HgN/A
3:50 am36 °FPartly cloudy.7 mph93%29.89 "HgN/A
3:20 am36 °FPassing clouds.9 mph70%29.92 "HgN/A
2:50 am37 °FPassing clouds.6 mph65%29.92 "HgN/A
2:20 am37 °FClear.9 mph60%29.92 "Hg10 mi
1:50 am37 °FPassing clouds.7 mph60%29.92 "HgN/A
1:20 am37 °FClear.10 mph60%29.92 "Hg10 mi
12:50 am37 °FClear.10 mph60%29.92 "Hg10 mi
12:20 am37 °FPassing clouds.9 mph65%29.95 "HgN/A
11:50 pm
Mon, Apr 24
39 °FPassing clouds.18 mph61%29.95 "HgN/A
11:20 pm39 °FPassing clouds.14 mph56%29.95 "HgN/A
Weather by CustomWeather, © 2017

See weather overviewHow to use our weather pages